Flag for Canada Weather past 2 weeks in Labrador City, Newfoundland and Labrador, Canada

Now
52 °F

Partly cloudy.


Feels Like: 51 °F
Forecast: 46 / 61 °F
Wind: 5 mph from South

Location: Wabush Lake

Current Time: Sep 2, 2015 at 3:50:03 AM

Latest Report: Sep 2, 2015 at 3:00 AM


Visibility: 15 mi

Pressure: 29.75 "Hg (27.82 "Hg at 558m altitude)

Humidity: 88%

Dew point: 48 °F

Location of Labrador CityLocation

Historic Weather in Labrador City — Graph

°F

Labrador City temperature yesterday

Maximum temperature yesterday: 54 °F (at 4:00 PM)
Minimum temperature yesterday: 34 °F (at 7:00 AM)
Average temperature yesterday: 45 °F

Past Weeks' High & Low Weather Summary

 TemperatureHumidityPressure
High79 °F (Aug 20, 3:00 PM)100% (Aug 19, 6:00 AM)30.19 "Hg (Aug 19, 6:00 AM)
Low34 °F (Sep 1, 7:00 AM)33% (Aug 19, 5:00 PM)29.57 "Hg (Aug 31, 8:00 AM)
Average59 °F78%29.96 "Hg
* Reported Aug 18 2:00 AM — Sep 2 2:00 AM, Labrador City, Weather by CustomWeather, © 2015

Note: Actual official high and low records may vary slightly from our data, if they occured in-between our weather recording intervals... More about our weather records

Advertising

Labrador City weather history for previous 24 hours

 ConditionsComfort  
Time TempWeatherWind HumidityBarometerVisibility
2:00 AM
Wed, Sep 2
52 °FPartly cloudy.6 mph88%29.78 "Hg15 mi
1:00 AM50 °FOvercast.9 mph88%29.79 "Hg15 mi
12:00 AM48 °FPartly cloudy.9 mph87%29.80 "Hg15 mi
11:00 PM
Tue, Sep 1
50 °FMostly cloudy.8 mph82%29.83 "Hg15 mi
10:00 PM50 °FOvercast.12 mph82%29.85 "Hg15 mi
9:00 PM48 °FOvercast.7 mph87%29.87 "Hg15 mi
8:00 PM48 °FOvercast.7 mph87%29.88 "Hg15 mi
7:00 PM48 °FOvercast.6 mph87%29.91 "Hg15 mi
6:00 PM48 °FSprinkles. More clouds than sun.5 mph87%29.94 "Hg15 mi
5:00 PM50 °FSprinkles. Overcast.3 mph76%29.95 "Hg12 mi
4:00 PM54 °FPartly sunny.12 mph63%29.92 "Hg15 mi
3:00 PM52 °FPartly sunny.13 mph62%29.95 "Hg15 mi
2:00 PM48 °FOvercast.10 mph71%30.01 "Hg15 mi
1:00 PM48 °FMore clouds than sun.9 mph71%30.01 "Hg15 mi
12:00 PM48 °FMore clouds than sun.9 mph71%30.05 "Hg15 mi
11:00 AM48 °FCloudy.7 mph76%30.06 "Hg15 mi
10:00 AM46 °FBroken clouds.3 mph82%30.07 "Hg15 mi
9:00 AM45 °FPartly sunny.No wind87%30.09 "Hg15 mi
8:00 AM37 °FFog.No wind100%30.10 "Hg15 mi
7:00 AM34 °FFog.2 mph93%30.10 "Hg15 mi
6:00 AM36 °FPassing clouds.No wind93%30.10 "Hg15 mi
5:00 AM36 °FClear.3 mph93%30.09 "Hg15 mi
4:00 AM36 °FClear.5 mph93%30.07 "Hg15 mi
3:00 AM37 °FClear.3 mph100%30.05 "Hg15 mi
Weather by CustomWeather, © 2015

See weather overviewHow to use our weather pages